User: anonymous   Login
Location: Unspecified
(55.7024°N, 37.6611°E)
Time: 23:11:01
(UTC+03:00)
Language:

S-56A Canister/Altair - Orbit

View from above orbital plane
View from above orbital plane
View from above satellite
View from above satellite

Ground track
Ground track

The orbit data is extracted from the following two-line orbital elements,

1 00082U 61004B   25167.57397241  .00000242  00000-0  21871-3 0  9990
2 00082  38.8641 277.6100 1168238 256.3956  90.4202 12.27656148 31867
Epoch (UTC): 16 June 2025 13:46:31
Eccentricity: 0.1168238
inclination: 38.8641°
perigee height: 632 km
apogee height: 2486 km
right ascension of ascending node: 277.6100°
argument of perigee: 256.3956°
revolutions per day: 12.27656148
mean anomaly at epoch: 90.4202°
orbit number at epoch: 3186

The dashed part of the orbit path shows where the satellite is in the earth's shadow,  

DLR